TimeEDT,TemperatureF,Dew PointF,Humidity,Sea Level PressureIn,VisibilityMPH,Wind Direction,Wind SpeedMPH,Gust SpeedMPH,PrecipitationIn,Events,Conditions,WindDirDegrees,DateUTC
12:53 AM,27.0,17.1,66,29.94,10.0,NW,9.2,-,N/A,,Overcast,310,2013-03-22 04:53:00
1:53 AM,26.1,17.1,69,29.95,10.0,NNW,10.4,-,N/A,,Overcast,330,2013-03-22 05:53:00
2:53 AM,26.1,16.0,66,29.96,10.0,NW,9.2,-,N/A,,Overcast,320,2013-03-22 06:53:00
3:53 AM,26.1,16.0,66,29.97,10.0,WNW,10.4,-,N/A,,Overcast,300,2013-03-22 07:53:00
4:53 AM,25.0,16.0,69,29.96,10.0,WNW,12.7,-,N/A,,Overcast,290,2013-03-22 08:53:00
5:53 AM,25.0,16.0,69,29.97,10.0,West,11.5,-,N/A,,Overcast,280,2013-03-22 09:53:00
6:53 AM,25.0,16.0,69,29.98,10.0,West,9.2,-,N/A,,Overcast,280,2013-03-22 10:53:00
7:53 AM,25.0,16.0,69,29.99,10.0,West,10.4,-,N/A,,Overcast,270,2013-03-22 11:53:00
8:53 AM,25.0,16.0,69,30.00,10.0,West,12.7,-,N/A,,Overcast,270,2013-03-22 12:53:00
9:53 AM,26.1,16.0,66,30.00,10.0,West,11.5,-,N/A,,Overcast,280,2013-03-22 13:53:00
10:53 AM,27.0,17.1,66,30.00,10.0,WNW,11.5,-,N/A,,Overcast,300,2013-03-22 14:53:00
11:53 AM,28.9,19.0,67,29.99,10.0,WNW,8.1,-,N/A,,Overcast,290,2013-03-22 15:53:00
12:53 PM,30.9,19.9,64,29.99,10.0,West,9.2,-,N/A,,Overcast,280,2013-03-22 16:53:00
1:53 PM,32.0,19.9,61,29.99,10.0,West,11.5,-,N/A,,Overcast,270,2013-03-22 17:53:00
2:53 PM,34.0,21.9,61,29.99,10.0,West,10.4,-,N/A,,Overcast,270,2013-03-22 18:53:00
3:09 PM,33.8,21.2,60,29.96,10.0,West,13.8,-,N/A,,Overcast,260,2013-03-22 19:09:00
3:53 PM,35.1,21.0,57,29.98,10.0,WSW,11.5,-,N/A,,Mostly Cloudy,250,2013-03-22 19:53:00
4:53 PM,36.0,21.9,57,29.97,10.0,SW,11.5,-,N/A,,Mostly Cloudy,230,2013-03-22 20:53:00
5:53 PM,37.9,21.9,53,29.97,10.0,WNW,9.2,-,N/A,,Mostly Cloudy,290,2013-03-22 21:53:00
6:53 PM,35.1,23.0,61,29.99,10.0,NW,9.2,-,N/A,,Overcast,310,2013-03-22 22:53:00
7:53 PM,33.1,21.9,64,30.01,10.0,NW,8.1,-,N/A,,Clear,310,2013-03-22 23:53:00
8:53 PM,30.9,21.9,69,30.03,10.0,NNW,6.9,-,N/A,,Clear,330,2013-03-23 00:53:00
9:53 PM,30.0,21.9,72,30.04,10.0,NW,5.8,-,N/A,,Clear,310,2013-03-23 01:53:00
10:53 PM,28.9,21.9,75,30.04,10.0,WNW,5.8,-,N/A,,Clear,300,2013-03-23 02:53:00
11:28 PM,30.2,21.2,69,30.02,10.0,NW,5.8,-,N/A,,Mostly Cloudy,310,2013-03-23 03:28:00
11:53 PM,30.9,23.0,72,30.05,10.0,NW,3.5,-,N/A,,Overcast,310,2013-03-23 03:53:00